Bryce Canyon, UT

6:46 AM MST on December 15, 2019 (GMT -0700)
Bryce Canyon

Weather History for KBCE - November, 2019

Change the Weather History Date:

Tuesday, November 19, 2019

  Actual Average Record
Temperature  
Mean Temperature 32 °F -  
Max Temperature 48 °F 40 °F 62 °F (2007)
Min Temperature 15 °F 14 °F -7 °F (1971)
Degree Days  
Heating Degree Days 34    
Moisture  
Dew Point 26 °F    
Average Humidity 71    
Maximum Humidity 93    
Minimum Humidity 29    
Precipitation  
Precipitation 0.26 in - - ()
Sea Level Pressure  
Sea Level Pressure 29.80 in    
Wind  
Wind Speed 8 mph ()    
Max Wind Speed 17 mph    
Max Gust Speed -    
Visibility 8.7 miles    
Events Rain    
Averages and records for this station are not official NWS values.
T = Trace of Precipitation, MM = Missing Value Source: Averaged Metar Reports

Daily Weather History Graph

Daily Weather History Graph

Search for Another Location

Airport or City:

Astronomy

Nov. 19, 2019 Rise Set
Actual Time 7:12 AM MST 5:14 PM MST
Civil Twilight 6:44 AM MST 5:43 PM MST
Nautical Twilight 6:12 AM MST 6:14 PM MST
Astronomical Twilight 5:41 AM MST 6:46 PM MST
Moon No Moon Rise 1:26 PM MST (11/19)
Length of Visible Light 10h 58m
Length of Day
10h 02m
Waning Gibbous, 51% of the Moon is Illuminated
Nov 19
Waning Gibbous
Nov 19
Last Quarter
Nov 26
New
Dec 3
First Quarter
Dec 11
Full

Hourly Weather History & Observations

Time (MST) Temp. Windchill Dew Point Humidity Pressure Visibility Wind Dir Wind Speed Gust Speed Precip Events Conditions
12:53 AM 19.0 °F 10.0 °F 10.0 °F 68% 29.94 in 10.0 mi WSW 6.9 mph - N/A   Clear
1:53 AM 17.1 °F 8.7 °F 10.0 °F 74% 29.92 in 10.0 mi SW 5.8 mph - N/A   Clear
2:53 AM 19.0 °F 11.1 °F 10.9 °F 71% 29.89 in 10.0 mi WSW 5.8 mph - N/A   Clear
3:53 AM 15.1 °F 6.4 °F 9.0 °F 77% 29.88 in 10.0 mi WSW 5.8 mph - N/A   Clear
4:53 AM 16.0 °F 7.4 °F 10.0 °F 77% 29.89 in 10.0 mi SW 5.8 mph - N/A   Clear
5:53 AM 19.9 °F 10.1 °F 12.9 °F 74% 29.92 in 10.0 mi SW 8.1 mph - N/A   Clear
6:53 AM 21.0 °F 13.4 °F 14.0 °F 74% 29.97 in 10.0 mi SW 5.8 mph - N/A   Clear
7:53 AM 39.0 °F 36.8 °F 21.0 °F 49% 29.91 in 10.0 mi South 3.5 mph - N/A   Clear
8:53 AM 45.0 °F 38.9 °F 21.9 °F 40% 29.88 in 10.0 mi SSE 12.7 mph - N/A   Clear
9:53 AM 46.0 °F 40.2 °F 19.9 °F 35% 29.89 in 10.0 mi SE 12.7 mph - N/A   Clear
10:53 AM 46.9 °F - 19.0 °F 33% 29.87 in 10.0 mi SE 10.4 mph - N/A   Clear
11:53 AM 46.0 °F 39.3 °F 16.0 °F 30% 29.85 in 10.0 mi SE 16.1 mph - N/A   Clear
12:53 PM 46.9 °F - 17.1 °F 30% 29.81 in 10.0 mi SE 12.7 mph - N/A   Clear
1:53 PM 48.0 °F - 17.1 °F 29% 29.79 in 10.0 mi SE 15.0 mph - N/A   Overcast
2:53 PM 46.0 °F 40.6 °F 32.0 °F 58% 29.78 in 10.0 mi SSE 11.5 mph - N/A   Overcast
3:53 PM 44.1 °F 37.1 °F 34.0 °F 68% 29.80 in 10.0 mi SE 15.0 mph - N/A   Overcast
4:53 PM 44.1 °F 38.6 °F 34.0 °F 68% 29.78 in 10.0 mi SE 10.4 mph - N/A   Mostly Cloudy
5:53 PM 43.0 °F 37.2 °F 30.9 °F 62% 29.76 in 10.0 mi SE 10.4 mph - N/A   Overcast
6:41 PM 39.9 °F 35.1 °F 33.1 °F 77% 29.85 in 10.0 mi ESE 6.9 mph - N/A   Mostly Cloudy
6:53 PM 39.0 °F 35.7 °F 33.1 °F 79% 29.76 in 10.0 mi SE 4.6 mph - N/A   Scattered Clouds
7:53 PM 37.9 °F 33.5 °F 35.1 °F 89% 29.65 in 10.0 mi SSE 5.8 mph - N/A   Clear
8:28 PM 37.0 °F - 33.1 °F 86% 29.82 in 10.0 mi Calm Calm - N/A   Scattered Clouds
8:53 PM 37.9 °F - 35.1 °F 89% 29.60 in 10.0 mi Calm Calm - N/A   Mostly Cloudy
9:53 PM 39.0 °F 29.9 °F 37.0 °F 93% 29.59 in 6.0 mi SSE 17.3 mph - 0.01 in Rain Light Rain
10:17 PM 39.0 °F 32.3 °F 37.0 °F 93% 29.79 in 6.0 mi SSE 10.4 mph - 0.10 in Rain Rain
10:37 PM 39.0 °F 31.8 °F 37.0 °F 93% 29.78 in 5.0 mi SSE 11.5 mph - 0.15 in Rain Rain
10:45 PM 39.0 °F 32.8 °F 37.0 °F 93% 29.78 in 6.0 mi SSE 9.2 mph - 0.16 in Rain Light Rain
10:53 PM 39.0 °F 32.3 °F 37.0 °F 93% 29.56 in 4.0 mi SE 10.4 mph - 0.16 in Rain Light Rain
11:14 PM 39.0 °F 33.4 °F 37.0 °F 93% 29.77 in 7.0 mi SSE 8.1 mph - 0.02 in Rain Light Rain
11:25 PM 39.0 °F 32.3 °F 37.0 °F 93% 29.76 in 4.0 mi SSE 10.4 mph - 0.04 in Rain Light Rain
11:46 PM 39.0 °F 33.4 °F 37.0 °F 93% 29.75 in 4.0 mi SSE 8.1 mph - 0.08 in Rain Rain
11:53 PM 39.0 °F 34.0 °F 37.0 °F 93% 29.54 in 6.0 mi SSE 6.9 mph - 0.09 in Rain Light Rain